Regional Weather Roundup
Issued by NWS

Home | Current Version | Previous Version | Graphics & Text | Print | Product List | Glossary On
Versions: 1 2 3 4 5 6 7 8 9 10 11 12 13 14 15 16 17 18 19 20 21 22 23 24 25 26 27
000
ASUS45 KSLC 171210
RWRUT

UTAH REGIONAL WEATHER ROUNDUP
NATIONAL WEATHER SERVICE SALT LAKE CITY UT
600 AM MDT THU APR 17 2014

UTZ001>011-023>025-171300-

NORTHERN UTAH

CITY           SKY/WX    TMP DP  RH WIND       PRES   REMARKS
HILL AFB       CLEAR     37  14  38 E16       30.03S WCI  28
LOGAN          PTCLDY    31  26  82 CALM      30.03F
OGDEN          CLEAR     38  16  40 S8        30.02S WCI  32
PROVO AIRPORT  CLEAR     34  27  75 CALM      30.07R
SALT LAKE CITY PTCLDY    37  21  52 SE8       30.03R WCI  31
VERNAL         CLEAR     32  19  58 NW5       30.06R WCI  27
WENDOVER       PTCLDY    39  19  45 S6        30.02R WCI  35
HEBER CITY     CLEAR     23  18  80 CALM      30.09R
WEST JORDAN    CLEAR     34  21  60 S7        30.04S WCI  28

$$

UTZ012>022-026-027-171300-

SOUTHERN UTAH

CITY           SKY/WX    TMP DP  RH WIND       PRES   REMARKS
BRYCE CANYON   PTCLDY    20  16  84 CALM      30.11S
CEDAR CITY     CLEAR     31  20  63 CALM      30.03R
MILFORD        CLEAR     33  21  61 S6        30.03S WCI  28
MOAB/CYNLANDS  CLEAR     37  19  48 CALM      30.02R
PRICE          PTCLDY    35  13  40 N10       30.04S WCI  27
ST GEORGE      SUNNY     54  23  30 CALM      29.96R
KANAB            N/A     43  23  45 N12       30.05S

$$

REGIONAL REPORTS     COLORADO/ARIZONA

CITY           SKY/WX    TMP DP  RH WIND       PRES   REMARKS
CRAIG, CO      CLEAR     20  17  88 CALM      30.09R
GRAND JUNCTION CLEAR     37  21  52 E9        30.03R WCI  30
RIFLE          CLEAR     28  22  78 VRB3      30.07R
MONTROSE       CLEAR     34  24  67 SE7       30.08R WCI  28
CORTEZ         CLEAR     26  20  77 NE5       30.08R WCI  20
PAGE, AZ       CLEAR     50  24  36 W6        30.01
GRAND CANYON   CLEAR     26  15  63 CALM      30.09R
KINGMAN        CLEAR     62  15  16 SE16      29.90S
FLAGSTAFF      CLEAR     28  16  60 CALM      30.10R

$$

REGIONAL REPORTS    NEVADA/IDAHO/WYOMING

CITY           SKY/WX    TMP DP  RH WIND       PRES   REMARKS
LAS VEGAS, NV  PTCLDY    65  26  23 SW3       29.81R
ELY            PTCLDY    28  21  75 S10       30.06S WCI  19
ELKO           PTCLDY    33  24  69 E5        30.03S WCI  29
POCATELLO, ID  CLEAR     38  16  40 S7        30.02R WCI  33
BURLEY         PTCLDY    33  22  63 S8        29.99S WCI  26
EVANSTON, WY   PTCLDY    29  11  47 S7        30.07S WCI  22
ROCK SPRINGS   PTCLDY    30  10  43 CALM      30.06S

$$



USA.gov is the U.S. government's official web portal to all federal, state and local government web resources and services.